OBJECT_NAME,OBJECT_ID,EPOCH,MEAN_MOTION,ECCENTRICITY,INCLINATION,RA_OF_ASC_NODE,ARG_OF_PERICENTER,MEAN_ANOMALY,EPHEMERIS_TYPE,CLASSIFICATION_TYPE,NORAD_CAT_ID,ELEMENT_SET_NO,REV_AT_EPOCH,BSTAR,MEAN_MOTION_DOT,MEAN_MOTION_DDOT COSMOS 2407,2004-028A,2026-09-12T02:34:46.094880,13.76340069,.003938,82.9645,10.4467,11.3084,160.8101,0,U,28380,999,11183,.34178E-4,.49E-6,0 COSMOS 2414,2005-002A,2026-09-11T23:22:23.831616,13.87933747,.0041512,82.9538,338.0024,82.3822,278.2054,0,U,28521,999,9585,.37081E-4,.61E-6,0 COSMOS 2463,2010-017A,2026-09-11T22:09:14.581152,13.71670095,.003472,82.9640,185.9829,248.8415,179.4463,0,U,36519,999,81982,.22237E-4,.35E-6,0